Project,Study,Ord_Occ,Event_Num,Cast_ID,Date_Time_UTC,Date_Time_PST,Lat_Dec,Lon_Dec,Sta_ID,Line,Sta,Depth,Pressure,PrQ,Temp1,Temp1Q,Temp2,Temp2Q,TempAve,Salt1,Salt1Q,Salt1_Corr,Salt2,Salt2Q,Salt2_Corr,SaltAve_Corr,Ox1,Ox1Q,Ox1_CruiseCorr,Ox1_StaCorr,Ox2,Ox2Q,Ox2_CruiseCorr,Ox2_StaCorr,OxAve_StaCorr,Ox1uM,Ox1uM_CruiseCorr,Ox1uM_StaCorr,Ox2uM,Ox2uM_CruiseCorr,Ox2uM_StaCorr,OxAveuM_StaCorr,FluorV,FluorQ,EstChl_CruiseCorr,EstChl_StaCorr,ISUSV,ISUSQ,EstNO3_CruiseCorr,EstNO3_StaCorr,SigThetaTS1,SigThetaTS1Q,SigThetaTS2,SigThetaTS2Q,BAT,XMiss,TransQ,pH,pHQ,SPAR,SPARQ,PAR,PARQ,PoT1,PoT2,DynHt,SVA,OxSat1,OxSat2,BTL_Depth,BTL_Temp,SaltB,OxB,OxBuM,Chl-a,Phaeo,NO3,NO2,NH4,PO4,SIL
CalCOFI,2101RL,024,,2101_024d,21-Jan-2021 21:25:49,21-Jan-2021 13:25:49,32.41420,-119.96218,090.0 060.0,090.0,060.0,3.000,3.021,,15.1559,,15.1567,,15.1563,33.3345,,33.3403,33.3310,,33.3330,33.3367,5.5504,,5.8089,5.9063,5.4771,,5.8152,5.8495,5.8779,241.917,253.4989,222.0914,238.722,269.4679,219.1455,220.6185,0.0451,,0.1214,0.1882, ,, , ,24.6544,,24.6514,,0.7792,82.3006,,,,1.1172E+03,,3.9041E+00,,15.1555,15.1562,0.0001,327.773,96.811,95.531,,,,,,,,,,,,
CalCOFI,2101RL,024,,2101_024d,21-Jan-2021 21:25:59,21-Jan-2021 13:25:59,32.41418,-119.96224,090.0 060.0,090.0,060.0,4.000,4.028,,15.1752,,15.1853,,15.1803,33.3355,,33.3413,33.3321,,33.3341,33.3377,5.5406,,5.7987,5.8957,5.4775,,5.8157,5.8499,5.8728,241.490,253.0519,221.7111,238.743,268.9931,219.1642,220.4377,0.0441,,0.1132,0.1772, ,, , ,24.6509,,24.6461,,0.7734,82.4203,,,,1.4476E+03,,3.3812E+00,,15.1746,15.1847,0.0048,328.129,96.677,95.594,4,,33.3191,5.791,252.60,0.302,0.094,,,,,
CalCOFI,2101RL,024,,2101_024d,21-Jan-2021 21:26:00,21-Jan-2021 13:26:00,32.41418,-119.96224,090.0 060.0,090.0,060.0,5.000,5.035,,15.1861,,15.1820,,15.1841,33.3353,,33.3411,33.3311,,33.3331,33.3371,5.5278,,5.7853,5.8820,5.4973,,5.8367,5.8714,5.8767,240.933,252.4689,221.2150,239.603,268.3737,219.9297,220.5724,0.0423,,0.0984,0.1571, ,, , ,24.6484,,24.6460,,0.7734,82.4205,,,,1.4568E+03,,3.1669E+00,,15.1854,15.1813,0.0083,328.398,96.475,95.932,,,,,,,,,,,,
CalCOFI,2101RL,024,,2101_024d,21-Jan-2021 21:26:02,21-Jan-2021 13:26:02,32.41416,-119.96224,090.0 060.0,090.0,060.0,6.000,6.042,,15.1061,,15.0887,,15.0974,33.3315,,33.3373,33.3270,,33.3290,33.3332,5.5359,,5.7938,5.8907,5.5085,,5.8486,5.8836,5.8872,241.282,252.8342,221.5258,240.089,268.7618,220.3622,220.9440,0.0445,,0.1164,0.1816, ,, , ,24.6629,,24.6633,,0.7742,82.4027,,,,8.9225E+02,,2.7400E+00,,15.1051,15.0878,0.0116,327.046,96.460,95.947,,,,,,,,,,,,
CalCOFI,2101RL,024,,2101_024d,21-Jan-2021 21:26:05,21-Jan-2021 13:26:05,32.41416,-119.96224,090.0 060.0,090.0,060.0,7.000,7.049,,15.0084,,15.0112,,15.0098,33.3261,,33.3319,33.3226,,33.3246,33.3283,5.5527,,5.8114,5.9088,5.5155,,5.8560,5.8912,5.9000,242.010,253.5963,222.1743,240.390,269.5713,220.6301,221.4022,0.0486,,0.1500,0.2248, ,, , ,24.6801,,24.6768,,0.7777,82.3307,,,,1.6044E+03,,2.5459E+00,,15.0073,15.0101,0.0149,325.441,96.561,95.918,,,,,,,,,,,,
CalCOFI,2101RL,024,,2101_024d,21-Jan-2021 21:26:08,21-Jan-2021 13:26:08,32.41416,-119.96225,090.0 060.0,090.0,060.0,8.000,8.057,,14.9695,,14.9697,,14.9696,33.3232,,33.3290,33.3196,,33.3216,33.3253,5.5606,,5.8196,5.9173,5.5161,,5.8566,5.8919,5.9046,242.354,253.9564,222.4807,240.414,269.9538,220.6515,221.5661,0.0525,,0.1820,0.2628, ,, , ,24.6863,,24.6835,,0.7802,82.2785,,,,1.4652E+03,,2.3129E+00,,14.9683,14.9685,0.0181,324.883,96.622,95.847,,,,,,,,,,,,
CalCOFI,2101RL,024,,2101_024d,21-Jan-2021 21:26:09,21-Jan-2021 13:26:09,32.41416,-119.96226,090.0 060.0,090.0,060.0,9.000,9.064,,14.9540,,14.9541,,14.9541,33.3221,,33.3279,33.3184,,33.3204,33.3242,5.5586,,5.8175,5.9151,5.5265,,5.8677,5.9031,5.9091,242.267,253.8653,222.4032,240.868,269.8571,221.0556,221.7294,0.0559,,0.2099,0.2934, ,, , ,24.6889,,24.6859,,0.7841,82.2000,,,,1.7797E+03,,2.1733E+00,,14.9527,14.9528,0.0214,324.666,96.557,95.997,,,,,,,,,,,,
CalCOFI,2101RL,024,,2101_024d,21-Jan-2021 21:26:12,21-Jan-2021 13:26:12,32.41414,-119.96226,090.0 060.0,090.0,060.0,10.000,10.071,,14.9424,,14.9416,,14.9420,33.3211,,33.3269,33.3171,,33.3191,33.3230,5.5491,,5.8076,5.9049,5.5264,,5.8676,5.9030,5.9040,241.851,253.4298,222.0327,240.865,269.3945,221.0529,221.5428,0.0593,,0.2377,0.3217, ,, , ,24.6906,,24.6877,,0.7860,82.1609,,,,1.8188E+03,,2.0284E+00,,14.9409,14.9401,0.0247,324.533,96.369,95.971,10,,33.3104,5.810,253.42,0.368,0.114,,,,,
CalCOFI,2101RL,024,,2101_024d,21-Jan-2021 21:26:15,21-Jan-2021 13:26:15,32.41414,-119.96227,090.0 060.0,090.0,060.0,11.000,11.078,,14.9391,,14.9394,,14.9393,33.3209,,33.3267,33.3172,,33.3192,33.3230,5.5633,,5.8224,5.9202,5.5151,,5.8556,5.8908,5.9055,242.469,254.0767,222.5831,240.368,270.0817,220.6106,221.5969,0.0626,,0.2648,0.3469, ,, , ,24.6912,,24.6883,,0.7852,82.1762,,,,1.5961E+03,,1.9134E+00,,14.9374,14.9377,0.0279,324.501,96.608,95.769,,,,,,,,,,,,
CalCOFI,2101RL,024,,2101_024d,21-Jan-2021 21:26:18,21-Jan-2021 13:26:18,32.41414,-119.96228,090.0 060.0,090.0,060.0,12.000,12.085,,14.9369,,14.9374,,14.9372,33.3214,,33.3272,33.3176,,33.3196,33.3234,5.5522,,5.8108,5.9082,5.5149,,5.8554,5.8906,5.8994,241.988,253.5732,222.1547,240.359,269.5469,220.6026,221.3787,0.0648,,0.2828,0.3625, ,, , ,24.6921,,24.6891,,0.7857,82.1666,,,,1.9178E+03,,1.8401E+00,,14.9351,14.9356,0.0312,324.449,96.413,95.762,,,,,,,,,,,,
CalCOFI,2101RL,024,,2101_024d,21-Jan-2021 21:26:20,21-Jan-2021 13:26:20,32.41414,-119.96228,090.0 060.0,090.0,060.0,13.000,13.092,,14.9259,,14.9261,,14.9260,33.3195,,33.3253,33.3157,,33.3177,33.3215,5.5646,,5.8238,5.9216,5.5188,,5.8595,5.8948,5.9082,242.527,254.1375,222.6348,240.533,270.1462,220.7574,221.6961,0.0680,,0.3090,0.3835, ,, , ,24.6930,,24.6901,,0.7860,82.1605,,,,1.9111E+03,,1.7259E+00,,14.9239,14.9242,0.0345,324.390,96.605,95.809,,,,,,,,,,,,
CalCOFI,2101RL,024,,2101_024d,21-Jan-2021 21:26:27,21-Jan-2021 13:26:27,32.41412,-119.96230,090.0 060.0,090.0,060.0,14.000,14.099,,14.9235,,14.9233,,14.9234,33.3195,,33.3253,33.3157,,33.3177,33.3215,5.5633,,5.8224,5.9202,5.5185,,5.8592,5.8945,5.9074,242.471,254.0788,222.5849,240.516,270.0840,220.7423,221.6636,0.0708,,0.3319,0.4001, ,, , ,24.6936,,24.6907,,0.7851,82.1779,,,,1.9623E+03,,1.6592E+00,,14.9214,14.9211,0.0378,324.367,96.578,95.797,,,,,,,,,,,,
CalCOFI,2101RL,024,,2101_024d,21-Jan-2021 21:26:36,21-Jan-2021 13:26:36,32.41412,-119.96234,090.0 060.0,090.0,060.0,15.000,15.106,,14.9222,,14.9227,,14.9225,33.3194,,33.3252,33.3157,,33.3177,33.3215,5.5588,,5.8177,5.9154,5.5168,,5.8574,5.8926,5.9040,242.275,253.8737,222.4103,240.443,269.8660,220.6773,221.5438,0.0724,,0.3451,0.4090, ,, , ,24.6938,,24.6908,,0.7852,82.1762,,,,1.9669E+03,,1.6154E+00,,14.9199,14.9204,0.0411,324.378,96.498,95.766,,,,,,,,,,,,
CalCOFI,2101RL,024,,2101_024d,21-Jan-2021 21:26:43,21-Jan-2021 13:26:43,32.41408,-119.96235,090.0 060.0,090.0,060.0,16.000,16.113,,14.9159,,14.9157,,14.9158,33.3180,,33.3238,33.3142,,33.3162,33.3200,5.5607,,5.8197,5.9174,5.5214,,5.8623,5.8976,5.9075,242.357,253.9595,222.4834,240.645,269.9572,220.8571,221.6703,0.0745,,0.3623,0.4197, ,, , ,24.6941,,24.6912,,0.7843,82.1951,,,,1.9678E+03,,1.5976E+00,,14.9135,14.9134,0.0446,324.373,96.517,95.833,,,,,,,,,,,,
CalCOFI,2101RL,024,,2101_024d,21-Jan-2021 21:26:48,21-Jan-2021 13:26:48,32.41407,-119.96237,090.0 060.0,090.0,060.0,17.000,17.121,,14.9132,,14.9135,,14.9134,33.3176,,33.3234,33.3139,,33.3159,33.3197,5.5561,,5.8149,5.9124,5.5218,,5.8627,5.8980,5.9052,242.156,253.7491,222.3043,240.661,269.7337,220.8714,221.5879,0.0782,,0.3926,0.4366, ,, , ,24.6944,,24.6915,,0.7851,82.1780,,,,1.9709E+03,,1.5878E+00,,14.9107,14.9109,0.0480,324.376,96.432,95.835,,,,,,,,,,,,
CalCOFI,2101RL,024,,2101_024d,21-Jan-2021 21:26:52,21-Jan-2021 13:26:52,32.41407,-119.96238,090.0 060.0,090.0,060.0,18.000,18.128,,14.9086,,14.9089,,14.9088,33.3167,,33.3225,33.3130,,33.3150,33.3188,5.5643,,5.8235,5.9213,5.5176,,5.8582,5.8935,5.9074,242.511,254.1207,222.6205,240.478,270.1284,220.7085,221.6645,0.0800,,0.4073,0.4438, ,, , ,24.6948,,24.6919,,0.7839,82.2042,,,,1.9721E+03,,1.5733E+00,,14.9059,14.9062,0.0512,324.372,96.564,95.753,,,,,,,,,,,,
CalCOFI,2101RL,024,,2101_024d,21-Jan-2021 21:26:57,21-Jan-2021 13:26:57,32.41406,-119.96240,090.0 060.0,090.0,060.0,19.000,19.135,,14.9051,,14.9054,,14.9053,33.3161,,33.3219,33.3123,,33.3143,33.3181,5.5520,,5.8106,5.9080,5.5102,,5.8504,5.8854,5.8967,241.977,253.5617,222.1449,240.154,269.5346,220.4201,221.2825,0.0826,,0.4286,0.4530, ,, , ,24.6950,,24.6921,,0.7843,82.1953,,,,1.9718E+03,,1.6034E+00,,14.9023,14.9026,0.0545,324.377,96.344,95.617,,,,,,,,,,,,
CalCOFI,2101RL,024,,2101_024d,21-Jan-2021 21:27:01,21-Jan-2021 13:27:01,32.41406,-119.96241,090.0 060.0,090.0,060.0,20.000,20.142,,14.9033,,14.9038,,14.9036,33.3158,,33.3216,33.3121,,33.3141,33.3179,5.5589,,5.8178,5.9155,5.5150,,5.8555,5.8907,5.9031,242.276,253.8747,222.4112,240.364,269.8671,220.6070,221.5091,0.0844,,0.4434,0.4587, ,, , ,24.6953,,24.6923,,0.7830,82.2217,,,,1.9757E+03,,1.5957E+00,,14.9003,14.9009,0.0578,324.383,96.460,95.697,20,,33.3079,5.804,253.14,0.402,0.108,,,,,
CalCOFI,2101RL,024,,2101_024d,21-Jan-2021 21:27:04,21-Jan-2021 13:27:04,32.41406,-119.96242,090.0 060.0,090.0,060.0,21.000,21.149,,14.9007,,14.9012,,14.9010,33.3155,,33.3213,33.3118,,33.3138,33.3176,5.5599,,5.8189,5.9165,5.5067,,5.8467,5.8816,5.8991,242.322,253.9229,222.4522,240.001,269.9183,220.2839,221.3681,0.0846,,0.4450,0.4592, ,, , ,24.6956,,24.6927,,0.7830,82.2211,,,,1.9777E+03,,1.6432E+00,,14.8976,14.8980,0.0610,324.384,96.473,95.547,,,,,,,,,,,,
CalCOFI,2101RL,024,,2101_024d,21-Jan-2021 21:27:07,21-Jan-2021 13:27:07,32.41405,-119.96242,090.0 060.0,090.0,060.0,22.000,22.156,,14.8989,,14.8992,,14.8991,33.3154,,33.3212,33.3117,,33.3137,33.3175,5.5566,,5.8154,5.9130,5.5093,,5.8494,5.8845,5.8988,242.176,253.7700,222.3221,240.115,269.7559,220.3854,221.3538,0.0875,,0.4688,0.4668, ,, , ,24.6960,,24.6931,,0.7819,82.2446,,,,1.9767E+03,,1.6748E+00,,14.8956,14.8960,0.0643,324.375,96.411,95.589,,,,,,,,,,,,
CalCOFI,2101RL,024,,2101_024d,21-Jan-2021 21:27:11,21-Jan-2021 13:27:11,32.41404,-119.96242,090.0 060.0,090.0,060.0,23.000,23.163,,14.8964,,14.8964,,14.8964,33.3152,,33.3210,33.3115,,33.3135,33.3173,5.5439,,5.8021,5.8993,5.5141,,5.8545,5.8897,5.8945,241.623,253.1912,221.8296,240.324,269.1410,220.5714,221.2005,0.0897,,0.4868,0.4714, ,, , ,24.6964,,24.6935,,0.7821,82.2410,,,,1.9779E+03,,1.7160E+00,,14.8930,14.8930,0.0676,324.366,96.186,95.667,,,,,,,,,,,,
CalCOFI,2101RL,024,,2101_024d,21-Jan-2021 21:27:14,21-Jan-2021 13:27:14,32.41404,-119.96242,090.0 060.0,090.0,060.0,24.000,24.171,,14.8937,,14.8939,,14.8938,33.3148,,33.3206,33.3111,,33.3131,33.3169,5.5539,,5.8126,5.9101,5.5120,,5.8523,5.8874,5.8988,242.058,253.6465,222.2170,240.235,269.6247,220.4922,221.3546,0.0912,,0.4991,0.4740, ,, , ,24.6967,,24.6939,,0.7820,82.2431,,,,1.9768E+03,,1.7952E+00,,14.8901,14.8903,0.0708,324.367,96.354,95.626,,,,,,,,,,,,
CalCOFI,2101RL,024,,2101_024d,21-Jan-2021 21:27:16,21-Jan-2021 13:27:16,32.41404,-119.96242,090.0 060.0,090.0,060.0,25.000,25.178,,14.8909,,14.8912,,14.8911,33.3146,,33.3204,33.3108,,33.3128,33.3166,5.5554,,5.8142,5.9117,5.5073,,5.8473,5.8823,5.8970,242.126,253.7177,222.2776,240.027,269.7003,220.3071,221.2924,0.0916,,0.5024,0.4746, ,, , ,24.6972,,24.6942,,0.7818,82.2455,,,,1.9778E+03,,1.9099E+00,,14.8872,14.8875,0.0741,324.354,96.376,95.538,,,,,,,,,,,,
CalCOFI,2101RL,024,,2101_024d,21-Jan-2021 21:27:18,21-Jan-2021 13:27:18,32.41404,-119.96244,090.0 060.0,090.0,060.0,26.000,26.185,,14.8881,,14.8884,,14.8883,33.3143,,33.3201,33.3105,,33.3125,33.3163,5.5598,,5.8188,5.9164,5.5186,,5.8593,5.8946,5.9055,242.315,253.9155,222.4460,240.522,269.9105,220.7476,221.5968,0.0937,,0.5196,0.4773, ,, , ,24.6976,,24.6946,,0.7812,82.2586,,,,1.9784E+03,,1.7819E+00,,14.8842,14.8846,0.0774,324.346,96.445,95.730,,,,,,,,,,,,
CalCOFI,2101RL,024,,2101_024d,21-Jan-2021 21:27:22,21-Jan-2021 13:27:22,32.41404,-119.96244,090.0 060.0,090.0,060.0,27.000,27.192,,14.8861,,14.8865,,14.8863,33.3141,,33.3199,33.3104,,33.3124,33.3162,5.5449,,5.8032,5.9004,5.4957,,5.8350,5.8697,5.8851,241.668,253.2383,221.8697,239.525,269.1910,219.8602,220.8650,0.0951,,0.5311,0.4786, ,, , ,24.6979,,24.6950,,0.7796,82.2916,,,,1.9791E+03,,2.0078E+00,,14.8821,14.8824,0.0806,324.347,96.184,95.329,,,,,,,,,,,,
CalCOFI,2101RL,024,,2101_024d,21-Jan-2021 21:27:24,21-Jan-2021 13:27:24,32.41403,-119.96245,090.0 060.0,090.0,060.0,28.000,28.199,,14.8859,,14.8861,,14.8860,33.3143,,33.3201,33.3105,,33.3125,33.3163,5.5530,,5.8117,5.9091,5.4966,,5.8359,5.8707,5.8899,242.021,253.6078,222.1841,239.562,269.5835,219.8932,221.0387,0.0953,,0.5327,0.4787, ,, , ,24.6981,,24.6952,,0.7794,82.2966,,,,1.9788E+03,,2.0214E+00,,14.8818,14.8820,0.0839,324.357,96.324,95.343,,,,,,,,,,,,
CalCOFI,2101RL,024,,2101_024d,21-Jan-2021 21:27:26,21-Jan-2021 13:27:26,32.41402,-119.96246,090.0 060.0,090.0,060.0,29.000,29.207,,14.8834,,14.8836,,14.8835,33.3142,,33.3200,33.3105,,33.3125,33.3163,5.5454,,5.8037,5.9009,5.5034,,5.8432,5.8781,5.8895,241.688,253.2592,221.8875,239.858,269.2132,220.1566,221.0221,0.0971,,0.5474,0.4798, ,, , ,24.6986,,24.6957,,0.7792,82.3009,,,,1.9789E+03,,2.0031E+00,,14.8791,14.8793,0.0872,324.337,96.187,95.456,,,,,,,,,,,,
CalCOFI,2101RL,024,,2101_024d,21-Jan-2021 21:27:29,21-Jan-2021 13:27:29,32.41402,-119.96246,090.0 060.0,090.0,060.0,30.000,30.214,,14.8820,,14.8823,,14.8822,33.3143,,33.3201,33.3105,,33.3125,33.3163,5.5429,,5.8011,5.8982,5.4886,,5.8274,5.8620,5.8801,241.580,253.1461,221.7913,239.212,269.0931,219.5816,220.6865,0.0979,,0.5540,0.4800, ,, , ,24.6990,,24.6960,,0.7771,82.3421,,,,1.9800E+03,,2.0318E+00,,14.8776,14.8779,0.0904,324.330,96.141,95.197,,,,,,,,,,,,
CalCOFI,2101RL,024,,2101_024d,21-Jan-2021 21:27:31,21-Jan-2021 13:27:31,32.41402,-119.96246,090.0 060.0,090.0,060.0,31.000,31.221,,14.8794,,14.8797,,14.8796,33.3146,,33.3204,33.3107,,33.3127,33.3166,5.5355,,5.7934,5.8903,5.4929,,5.8320,5.8667,5.8785,241.258,252.8091,221.5045,239.400,268.7351,219.7490,220.6268,0.0993,,0.5655,0.4801, ,, , ,24.6999,,24.6968,,0.7768,82.3480,,,,1.9800E+03,,1.9750E+00,,14.8748,14.8750,0.0937,324.279,96.008,95.267,,,,,,,,,,,,
CalCOFI,2101RL,024,,2101_024d,21-Jan-2021 21:27:33,21-Jan-2021 13:27:33,32.41402,-119.96247,090.0 060.0,090.0,060.0,32.000,32.228,,14.8739,,14.8747,,14.8743,33.3161,,33.3219,33.3127,,33.3147,33.3183,5.5202,,5.7773,5.8738,5.4813,,5.8197,5.8541,5.8640,240.589,252.1088,220.9085,238.892,267.9911,219.2968,220.1027,0.1027,,0.5933,0.4788, ,, , ,24.7022,,24.6995,,0.7738,82.4118,,,,1.9802E+03,,1.8656E+00,,14.8692,14.8699,0.0970,324.082,95.733,95.057,,,,,,,,,,,,
CalCOFI,2101RL,024,,2101_024d,21-Jan-2021 21:27:35,21-Jan-2021 13:27:35,32.41402,-119.96248,090.0 060.0,090.0,060.0,33.000,33.235,,14.8981,,14.9006,,14.8994,33.3291,,33.3349,33.3265,,33.3285,33.3317,5.5207,,5.7779,5.8743,5.4655,,5.8029,5.8369,5.8556,240.611,252.1318,220.9281,238.205,268.0156,218.6854,219.8068,0.1040,,0.6040,0.4776, ,, , ,24.7071,,24.7045,,0.7716,82.4559,,,,1.9799E+03,,1.8616E+00,,14.8932,14.8957,0.1002,323.652,95.796,94.841,,,,,,,,,,,,
CalCOFI,2101RL,024,,2101_024d,21-Jan-2021 21:27:37,21-Jan-2021 13:27:37,32.41400,-119.96250,090.0 060.0,090.0,060.0,34.000,34.243,,14.9177,,14.9194,,14.9186,33.3383,,33.3441,33.3353,,33.3373,33.3407,5.5108,,5.7675,5.8636,5.4471,,5.7834,5.8169,5.8403,240.179,251.6796,220.5433,237.404,267.5352,217.9724,219.2579,0.1031,,0.5966,0.4785, ,, , ,24.7100,,24.7073,,0.7704,82.4817,,,,1.9807E+03,,1.8105E+00,,14.9126,14.9143,0.1035,323.408,95.667,94.563,,,,,,,,,,,,
CalCOFI,2101RL,024,,2101_024d,21-Jan-2021 21:27:39,21-Jan-2021 13:27:39,32.41400,-119.96250,090.0 060.0,090.0,060.0,35.000,35.250,,14.9562,,14.9573,,14.9568,33.3558,,33.3616,33.3526,,33.3546,33.3581,5.5004,,5.7566,5.8524,5.4417,,5.7776,5.8111,5.8318,239.722,251.2012,220.1363,237.166,267.0270,217.7606,218.9485,0.1028,,0.5942,0.4787, ,, , ,24.7152,,24.7125,,0.7694,82.5012,,,,1.9805E+03,,1.7051E+00,,14.9510,14.9521,0.1067,322.946,95.570,94.550,,,,,,,,,,,,
CalCOFI,2101RL,024,,2101_024d,21-Jan-2021 21:27:41,21-Jan-2021 13:27:41,32.41398,-119.96248,090.0 060.0,090.0,060.0,36.000,36.257,,14.9820,,14.9829,,14.9825,33.3668,,33.3726,33.3633,,33.3653,33.3690,5.4960,,5.7520,5.8477,5.4342,,5.7697,5.8029,5.8253,239.531,251.0013,219.9661,236.837,266.8146,217.4678,218.7170,0.1044,,0.6073,0.4772, ,, , ,24.7181,,24.7152,,0.7681,82.5278,,,,1.9821E+03,,1.6193E+00,,14.9766,14.9775,0.1100,322.702,95.549,94.474,,,,,,,,,,,,
CalCOFI,2101RL,024,,2101_024d,21-Jan-2021 21:27:44,21-Jan-2021 13:27:44,32.41397,-119.96248,090.0 060.0,090.0,060.0,37.000,37.264,,14.9895,,14.9900,,14.9898,33.3700,,33.3758,33.3664,,33.3684,33.3721,5.4857,,5.7412,5.8366,5.4309,,5.7662,5.7993,5.8180,239.079,250.5281,219.5635,236.695,266.3120,217.3414,218.4525,0.1035,,0.5999,0.4781, ,, , ,24.7190,,24.7161,,0.7706,82.4771,,,,1.9807E+03,,1.5730E+00,,14.9839,14.9845,0.1132,322.649,95.385,94.433,,,,,,,,,,,,
CalCOFI,2101RL,024,,2101_024d,21-Jan-2021 21:27:46,21-Jan-2021 13:27:46,32.41396,-119.96248,090.0 060.0,090.0,060.0,38.000,38.272,,15.0111,,15.0129,,15.0120,33.3802,,33.3860,33.3771,,33.3791,33.3826,5.4755,,5.7306,5.8256,5.4142,,5.7484,5.7812,5.8034,238.635,250.0633,219.1680,235.967,265.8183,216.6934,217.9307,0.1036,,0.6007,0.4780, ,, , ,24.7222,,24.7194,,0.7688,82.5148,,,,1.9815E+03,,1.4762E+00,,15.0054,15.0073,0.1165,322.375,95.255,94.191,,,,,,,,,,,,
CalCOFI,2101RL,024,,2101_024d,21-Jan-2021 21:27:48,21-Jan-2021 13:27:48,32.41396,-119.96248,090.0 060.0,090.0,060.0,39.000,39.279,,15.0578,,15.0598,,15.0588,33.4013,,33.4071,33.3984,,33.4004,33.4038,5.4562,,5.7104,5.8048,5.4193,,5.7538,5.7867,5.7958,237.794,249.1830,218.4189,236.187,264.8831,216.8892,217.6541,0.1061,,0.6212,0.4751, ,, , ,24.7283,,24.7257,,0.7695,82.5002,,,,1.9818E+03,,1.4408E+00,,15.0519,15.0540,0.1197,321.826,95.020,94.380,,,,,,,,,,,,
CalCOFI,2101RL,024,,2101_024d,21-Jan-2021 21:27:49,21-Jan-2021 13:27:49,32.41396,-119.96248,090.0 060.0,090.0,060.0,40.000,40.286,,15.0734,,15.0744,,15.0739,33.4101,,33.4159,33.4069,,33.4089,33.4124,5.4518,,5.7058,5.8001,5.4120,,5.7461,5.7788,5.7895,237.599,248.9788,218.2452,235.868,264.6662,216.6053,217.4253,0.1052,,0.6138,0.4763, ,, , ,24.7318,,24.7291,,0.7696,82.4968,,,,1.9822E+03,,1.3262E+00,,15.0674,15.0684,0.1230,321.529,94.978,94.286,,,,,,,,,,,,
CalCOFI,2101RL,024,,2101_024d,21-Jan-2021 21:27:51,21-Jan-2021 13:27:51,32.41398,-119.96248,090.0 060.0,090.0,060.0,41.000,41.293,,15.0986,,15.1027,,15.1007,33.4230,,33.4288,33.4210,,33.4230,33.4259,5.4234,,5.6760,5.7695,5.3755,,5.7073,5.7392,5.7544,236.364,247.6860,217.1452,234.275,263.2929,215.1874,216.1663,0.1077,,0.6343,0.4726, ,, , ,24.7363,,24.7338,,0.7705,82.4783,,,,1.9841E+03,,1.2900E+00,,15.0924,15.0965,0.1262,321.132,94.539,93.710,,,,,,,,,,,,
CalCOFI,2101RL,024,,2101_024d,21-Jan-2021 21:27:53,21-Jan-2021 13:27:53,32.41398,-119.96248,090.0 060.0,090.0,060.0,42.000,42.300,,15.1309,,15.1340,,15.1325,33.4391,,33.4449,33.4369,,33.4389,33.4419,5.3998,,5.6513,5.7441,5.3546,,5.6851,5.7165,5.7303,235.334,246.6078,216.2277,233.363,262.1475,214.3757,215.3017,0.1033,,0.5983,0.4783, ,, , ,24.7416,,24.7392,,0.7718,82.4533,,,,1.9833E+03,,1.2150E+00,,15.1246,15.1277,0.1295,320.656,94.198,93.413,,,,,,,,,,,,
CalCOFI,2101RL,024,,2101_024d,21-Jan-2021 21:27:54,21-Jan-2021 13:27:54,32.41396,-119.96250,090.0 060.0,090.0,060.0,43.000,43.308,,15.1511,,15.1518,,15.1515,33.4529,,33.4587,33.4493,,33.4513,33.4550,5.4191,,5.6715,5.7649,5.3486,,5.6787,5.7100,5.7375,236.171,247.4840,216.9733,233.099,263.0783,214.1407,215.5570,0.1064,,0.6237,0.4747, ,, , ,24.7479,,24.7450,,0.7724,82.4400,,,,1.9823E+03,,1.1610E+00,,15.1446,15.1453,0.1327,320.094,94.579,93.348,,,,,,,,,,,,
CalCOFI,2101RL,024,,2101_024d,21-Jan-2021 21:27:56,21-Jan-2021 13:27:56,32.41396,-119.96249,090.0 060.0,090.0,060.0,44.000,44.315,,15.1453,,15.1461,,15.1457,33.4546,,33.4604,33.4536,,33.4556,33.4580,5.3976,,5.6490,5.7417,5.3358,,5.6652,5.6961,5.7189,235.236,246.5052,216.1404,232.543,262.0385,213.6458,214.8931,0.1069,,0.6277,0.4739, ,, , ,24.7505,,24.7495,,0.7728,82.4313,,,,1.9820E+03,,1.0753E+00,,15.1387,15.1395,0.1359,319.876,94.195,93.118,,,,,,,,,,,,
CalCOFI,2101RL,024,,2101_024d,21-Jan-2021 21:28:00,21-Jan-2021 13:28:00,32.41396,-119.96248,090.0 060.0,090.0,060.0,45.000,45.322,,15.1509,,15.1515,,15.1512,33.4728,,33.4786,33.4690,,33.4710,33.4748,5.3140,,5.5615,5.6517,5.2797,,5.6056,5.6352,5.6435,231.589,242.6876,212.8919,230.095,257.9830,211.4669,212.1794,0.1082,,0.6384,0.4717, ,, , ,24.7633,,24.7603,,0.7754,82.3769,,,,1.9823E+03,,1.0331E+00,,15.1441,15.1447,0.1391,318.686,92.757,92.157,,,,,,,,,,,,
CalCOFI,2101RL,024,,2101_024d,21-Jan-2021 21:28:01,21-Jan-2021 13:28:01,32.41396,-119.96250,090.0 060.0,090.0,060.0,46.000,46.330,,15.1373,,15.1368,,15.1371,33.4745,,33.4803,33.4709,,33.4729,33.4766,5.1890,,5.4307,5.5170,5.1937,,5.5142,5.5418,5.5294,226.140,236.9836,208.0382,226.347,251.9236,208.1310,208.0846,0.1101,,0.6540,0.4678, ,, , ,24.7677,,24.7650,,0.7758,82.3702,,,,1.9817E+03,,9.6204E-01,,15.1304,15.1298,0.1423,318.302,90.551,90.631,,,,,,,,,,,,
CalCOFI,2101RL,024,,2101_024d,21-Jan-2021 21:28:03,21-Jan-2021 13:28:03,32.41396,-119.96250,090.0 060.0,090.0,060.0,47.000,47.337,,14.8832,,14.8569,,14.8701,33.4629,,33.4687,33.4587,,33.4607,33.4647,5.0280,,5.2622,5.3436,5.0724,,5.3854,5.4100,5.3768,219.113,229.6277,201.7790,221.047,244.1095,203.4137,202.5964,0.1139,,0.6851,0.4579, ,, , ,24.8137,,24.8161,,0.7776,82.3328,,,,1.9822E+03,,9.0775E-01,,14.8762,14.8499,0.1455,313.923,87.295,88.017,47,,33.4199,, ,,,,,,,
CalCOFI,2101RL,024,,2101_024d,21-Jan-2021 21:28:05,21-Jan-2021 13:28:05,32.41396,-119.96250,090.0 060.0,090.0,060.0,48.000,48.344,,14.4520,,14.4354,,14.4437,33.4522,,33.4580,33.4507,,33.4527,33.4554,4.8501,,5.0760,5.1519,4.9288,,5.2329,5.2541,5.2030,211.343,221.4941,194.8579,214.774,235.4691,197.8303,196.3441,0.1170,,0.7105,0.4477, ,, , ,24.8977,,24.9001,,0.7802,82.2801,,,,1.9822E+03,,8.6839E-01,,14.4450,14.4284,0.1486,305.924,83.473,84.799,,,,,,,,,,,,
CalCOFI,2101RL,024,,2101_024d,21-Jan-2021 21:28:06,21-Jan-2021 13:28:06,32.41396,-119.96250,090.0 060.0,090.0,060.0,49.000,49.351,,13.9609,,13.9358,,13.9484,33.4115,,33.4173,33.4110,,33.4130,33.4152,4.8518,,5.0778,5.1538,4.9236,,5.2274,5.2485,5.2012,211.402,221.5558,194.9105,214.528,235.5347,197.6113,196.2609,0.1090,,0.6450,0.4701, ,, , ,24.9692,,24.9739,,0.7737,82.4122,,,,1.9822E+03,,8.2892E-01,,13.9539,13.9288,0.1517,299.112,82.655,83.836,49,,33.4094,5.557,242.37,0.492,0.264,,,,,
CalCOFI,2101RL,024,,2101_024d,21-Jan-2021 21:28:08,21-Jan-2021 13:28:08,32.41396,-119.96250,090.0 060.0,090.0,060.0,50.000,50.359,,13.3436,,13.3193,,13.3315,33.3375,,33.3433,33.3380,,33.3400,33.3417,4.9598,,5.1908,5.2701,4.9435,,5.2485,5.2701,5.2701,216.093,226.4664,199.0889,215.383,240.7512,198.3723,198.7306,0.1029,,0.5950,0.4786, ,, , ,25.0377,,25.0430,,0.7666,82.5587,,,,1.9822E+03,,7.8722E-01,,13.3367,13.3124,0.1547,292.557,83.396,83.084,,,,,,,,,,,,
CalCOFI,2101RL,024,,2101_024d,21-Jan-2021 21:28:09,21-Jan-2021 13:28:09,32.41396,-119.96250,090.0 060.0,090.0,060.0,51.000,51.366,,12.8852,,12.8764,,12.8808,33.2970,,33.3028,33.2941,,33.2961,33.2995,5.0205,,5.2544,5.3355,4.9450,,5.2501,5.2717,5.3036,218.726,229.2226,201.4342,215.437,243.6791,198.4204,199.9273,0.0943,,0.5245,0.4779, ,, , ,25.0977,,25.0972,,0.7590,82.7174,,,,1.9822E+03,,7.6926E-01,,12.8783,12.8695,0.1576,286.834,83.606,82.332,,,,,,,,,,,,
CalCOFI,2101RL,024,,2101_024d,21-Jan-2021 21:28:12,21-Jan-2021 13:28:12,32.41394,-119.96250,090.0 060.0,090.0,060.0,52.000,52.373,,12.9464,,12.7111,,12.8288,33.3143,,33.3201,33.2762,,33.2782,33.2992,4.8103,,5.0344,5.1091,4.8609,,5.1608,5.1804,5.1448,209.568,219.6360,193.2768,211.767,233.4953,195.1539,194.2154,0.0867,,0.4622,0.4649, ,, , ,25.0987,,25.1156,,0.7563,82.7721,,,,1.9826E+03,,7.2869E-01,,12.9394,12.7041,0.1605,286.767,80.214,80.645,,,,,,,,,,,,